STARLINK-1080, 44961

Orbit data source: Space-Track

STARLINK-1080, 44961 is a payload satellite owned by SpaceX/Seattle (US) in LEO that was launched on Tue, 07 Jan 2020 UTC via an FALCON 9 launch vehicle from the Air Force Eastern Test Range (AFETR). Payload-class satellites include a variety of spacecraft equipped with specific instruments for various scientific and technological missions. These include communications satellites like Starlink; space stations such as the ISS; scientific satellites like the Hubble; Earth observation satellites from companies like Planet Labs, Umbra, and HawkEye 360; GPS; miniature CubeSats for education and research; and military/defense satellites.

Loading next visibility...
Identifier
44961, 2020-001AZ
Orbit
LEO
Country
Flag of USUS
Related business
Manufacturer
SpaceX/Seattle
Mission
Partially operational Commercial Communications
Bus & Motor
STARLINK, Unknown motor
Mass
260 kg wet, ~248 kg dry
Launch date (UTC)
2020-01-07 (6 years ago)
Launch vehicle
FALCON 9
Launch site
Air Force Eastern Test Range (AFETR)
Object type
Payload
Rocket body
Debris
Shape & HBR
Box + 1 Pan, 10.1 m
Radar Cross Section
13.562 m², Large (>1 m²)

Expand to show TLE details & history
Last TLE update: 8 hours ago

TLE from 8 hours ago
0 STARLINK-1080
1 44961U 20001AZ  26163.78062780  .00051724  00000-0  45770-3 0  9998
2 44961  53.0440 187.4569 0003108  43.6070 316.5191 15.68132295355487
Epoch: 2026-06-12T18:44Z
TLE epoch observation values (Epoch: 2026-06-12T18:44:06.241Z)
Latitude
-0.00004°
Longitude
5.32571°
Altitude
363.627 km
Speed
7.693 km/s
True Right ascension
12h 29m 49s
True Declination
0° 00' 00"
Sunlit
Object was in daylight at epoch
Visualization orbit readout
Latitude
Unknown
Longitude
Unknown
Altitude
Unknown
Speed
Unknown
Apparent Right ascension
Unknown
Apparent Declination
Unknown
Sunlit
N/A
Visualization observer readout
Local Sidereal Time
13:18:24
Azimuth
Unknown
Elevation
Unknown
Doppler factor
Unknown
Orbital elements
Apogee altitude
366.621 km
Perigee altitude
362.429 km
Semi-major axis
6,742.662 km
Eccentricity
0.00031
Inclination
53.044°
RAAN
187.4569°
Arg. of periapsis
43.607°
True anomaly
316.49459°
Mean anomaly
316.5191°
Eccentric anomaly
316.50684°
Mean motion
3.92009 °/min
Orbital period
91.83 mins
BSTAR
0.0004577
Loading maneuver chart data...
Computing Atmospheric mass density...

Documentation

Showing up to 5 results
|